PBD408 USSS-UUWW

Flight info

Callsign PBD408
Flight time N/A
Altitude 36000
Route LUNAG M864 AGNOK/K0830F280 M864 KERUN P164 IDMOR M864 EKSER/K0880F360 M864 IBROT T535 URIDU L158 DIMGI
Aircraft B738/M-SDE2E3FGHIRWXY/LB1

Departure

Time 2026-04-27 16:31
Airport Koltsovo Airport (USSS)

Arrival

Time N/A
Airport Vnukovo International Airport (UUWW)
Time Latitude Longitude Altitude Speed Heading
2026-04-27 15:21 56.74810 60.79326 776 ft 0 kts
2026-04-27 16:08 56.74816 60.79327 781 ft 3 kts
2026-04-27 16:09 56.74841 60.79350 781 ft 5 kts 44°
2026-04-27 16:09 56.74858 60.79499 781 ft 10 kts 89°
2026-04-27 16:09 56.74858 60.79626 781 ft 10 kts 90°
2026-04-27 16:10 56.74856 60.79881 781 ft 10 kts 95°
2026-04-27 16:10 56.74841 60.79951 781 ft 8 kts 78°
2026-04-27 16:11 56.74853 60.80074 781 ft 10 kts 88°
2026-04-27 16:11 56.74855 60.80256 781 ft 6 kts 91°
2026-04-27 16:12 56.74853 60.80377 781 ft 0 kts 91°
2026-04-27 16:13 56.74853 60.80407 781 ft 0 kts 91°
2026-04-27 16:13 56.74853 60.80409 781 ft 0 kts 97°
2026-04-27 16:14 56.74802 60.80443 781 ft 5 kts 175°
2026-04-27 16:14 56.74787 60.80444 781 ft 0 kts 177°
2026-04-27 16:24 56.74764 60.80450 781 ft 9 kts 159°
2026-04-27 16:24 56.74705 60.80636 781 ft 10 kts 157°
2026-04-27 16:25 56.74660 60.80937 781 ft 17 kts 90°
2026-04-27 16:25 56.74659 60.81406 781 ft 19 kts 90°
2026-04-27 16:26 56.74659 60.81866 781 ft 18 kts 91°
2026-04-27 16:26 56.74645 60.82165 781 ft 11 kts 128°
2026-04-27 16:27 56.74590 60.82206 781 ft 0 kts 182°
2026-04-27 16:28 56.74516 60.82204 783 ft 14 kts 180°
2026-04-27 16:28 56.74243 60.82174 780 ft 23 kts 183°
2026-04-27 16:29 56.74068 60.82041 775 ft 0 kts 268°
2026-04-27 16:31 56.74219 60.78823 960 ft 175 kts 274°
2026-04-27 16:31 56.74468 60.74006 2973 ft 182 kts 264°
2026-04-27 16:32 56.74405 60.68868 3880 ft 223 kts 266°
2026-04-27 16:32 56.74408 60.65964 4268 ft 238 kts 267°
2026-04-27 16:33 56.74708 60.59645 5476 ft 256 kts 275°
2026-04-27 16:33 56.74958 60.56452 6410 ft 254 kts 275°
2026-04-27 16:33 56.75211 60.53232 7189 ft 258 kts 276°
2026-04-27 16:33 56.75460 60.50007 7938 ft 261 kts 275°
2026-04-27 16:34 56.75710 60.46704 8711 ft 265 kts 275°
2026-04-27 16:34 56.75959 60.43369 9477 ft 268 kts 275°
2026-04-27 16:34 56.76211 60.39937 10234 ft 271 kts 276°
2026-04-27 16:34 56.76462 60.36470 10535 ft 291 kts 276°
2026-04-27 16:35 56.76736 60.32625 10718 ft 313 kts 276°
2026-04-27 16:35 56.77018 60.28662 11134 ft 324 kts 276°
2026-04-27 16:35 56.77601 60.20419 12592 ft 329 kts 276°
2026-04-27 16:36 56.77892 60.16262 13318 ft 332 kts 276°
2026-04-27 16:36 56.78183 60.12075 14000 ft 335 kts 276°
2026-04-27 16:36 56.78478 60.07814 14639 ft 338 kts 276°
2026-04-27 16:36 56.78771 60.03547 15292 ft 340 kts 276°
2026-04-27 16:37 56.79065 59.99238 15921 ft 343 kts 276°
2026-04-27 16:37 56.79360 59.94908 16549 ft 346 kts 276°
2026-04-27 16:37 56.79655 59.90538 17181 ft 349 kts 276°
2026-04-27 16:37 56.79951 59.86133 17818 ft 352 kts 276°
2026-04-27 16:38 56.80249 59.81670 18399 ft 355 kts 276°
2026-04-27 16:38 56.80547 59.77194 18932 ft 357 kts 276°
2026-04-27 16:38 56.80845 59.72689 19510 ft 358 kts 277°
2026-04-27 16:38 56.81142 59.68158 20075 ft 360 kts 276°
2026-04-27 16:39 56.81439 59.63618 20624 ft 361 kts 276°
2026-04-27 16:39 56.81736 59.59047 21146 ft 364 kts 276°
2026-04-27 16:39 56.82032 59.54459 21679 ft 366 kts 277°
2026-04-27 16:39 56.82329 59.49838 22204 ft 367 kts 277°
2026-04-27 16:40 56.82623 59.45229 22709 ft 370 kts 276°
2026-04-27 16:40 56.82920 59.40560 23203 ft 372 kts 276°
2026-04-27 16:40 56.83216 59.35861 23661 ft 374 kts 277°
2026-04-27 16:40 56.83514 59.31112 24063 ft 376 kts 277°
2026-04-27 16:41 56.83810 59.26360 24468 ft 377 kts 276°
2026-04-27 16:41 56.84106 59.21584 24868 ft 379 kts 276°
2026-04-27 16:41 56.84403 59.16775 25249 ft 381 kts 276°
2026-04-27 16:41 56.84698 59.11956 25662 ft 382 kts 277°
2026-04-27 16:42 56.84989 59.07123 26053 ft 383 kts 276°
2026-04-27 16:42 56.85166 59.02242 26408 ft 386 kts 273°
2026-04-27 16:42 56.85266 58.97326 26765 ft 387 kts 272°
2026-04-27 16:42 56.85343 58.92399 27132 ft 389 kts 272°
2026-04-27 16:43 56.85415 58.87438 27487 ft 390 kts 272°
2026-04-27 16:43 56.85488 58.82535 27829 ft 392 kts 272°
2026-04-27 16:43 56.85564 58.77537 28169 ft 394 kts 272°
2026-04-27 16:43 56.85642 58.72527 28497 ft 395 kts 272°
2026-04-27 16:44 56.85722 58.67496 28784 ft 397 kts 272°
2026-04-27 16:44 56.85802 58.62445 29085 ft 399 kts 272°
2026-04-27 16:44 56.85880 58.57362 29381 ft 401 kts 272°
2026-04-27 16:44 56.85958 58.52279 29703 ft 401 kts 272°
2026-04-27 16:45 56.86034 58.47168 30084 ft 400 kts 272°
2026-04-27 16:45 56.86082 58.43797 30326 ft 399 kts 272°
2026-04-27 16:45 56.86154 58.38724 30615 ft 400 kts 272°
2026-04-27 16:45 56.86225 58.33582 30853 ft 401 kts 272°
2026-04-27 16:46 56.86292 58.28549 31144 ft 401 kts 272°
2026-04-27 16:46 56.86358 58.23461 31414 ft 401 kts 272°
2026-04-27 16:46 56.86422 58.18360 31674 ft 401 kts 272°
2026-04-27 16:46 56.86484 58.13263 31953 ft 401 kts 272°
2026-04-27 16:47 56.86544 58.08138 32237 ft 401 kts 272°
2026-04-27 16:47 56.86602 58.03037 32489 ft 401 kts 272°
2026-04-27 16:47 56.86657 57.97935 32755 ft 401 kts 272°
2026-04-27 16:47 56.86711 57.92850 33038 ft 401 kts 272°
2026-04-27 16:48 56.86762 57.87754 33286 ft 401 kts 271°
2026-04-27 16:48 56.86811 57.82638 33534 ft 401 kts 271°
2026-04-27 16:48 56.86858 57.77558 33804 ft 400 kts 271°
2026-04-27 16:49 56.86946 57.67402 34198 ft 401 kts 271°
2026-04-27 16:49 56.86988 57.62288 34332 ft 403 kts 271°
2026-04-27 16:49 56.87027 57.57155 34506 ft 403 kts 271°
2026-04-27 16:49 56.87064 57.52030 34683 ft 404 kts 271°
2026-04-27 16:50 56.87099 57.46888 34834 ft 404 kts 271°
2026-04-27 16:50 56.87132 57.41741 34966 ft 406 kts 271°
2026-04-27 16:50 56.87163 57.36636 35082 ft 408 kts 271°
2026-04-27 16:50 56.87192 57.31450 35206 ft 409 kts 270°
2026-04-27 16:51 56.87219 57.26252 35374 ft 409 kts 270°
2026-04-27 16:51 56.87243 57.21052 35523 ft 410 kts 270°
2026-04-27 16:51 56.87266 57.15834 35652 ft 411 kts 270°
2026-04-27 16:51 56.87287 57.10609 35805 ft 411 kts 270°
2026-04-27 16:52 56.87321 57.00101 35879 ft 415 kts 270°
2026-04-27 16:52 56.87347 56.89462 35889 ft 421 kts 270°
2026-04-27 16:53 56.87365 56.78682 35885 ft 426 kts 270°
2026-04-27 16:53 56.87373 56.67804 35876 ft 429 kts 270°
2026-04-27 16:54 56.87373 56.56946 35868 ft 431 kts 270°
2026-04-27 16:54 56.87363 56.45979 35857 ft 431 kts 270°
2026-04-27 16:55 56.87428 56.35026 35843 ft 431 kts 271°
2026-04-27 16:55 56.87557 56.24093 35845 ft 430 kts 271°
2026-04-27 16:56 56.87664 56.13185 35840 ft 429 kts 271°
2026-04-27 16:56 56.87752 56.02298 35840 ft 427 kts 271°
2026-04-27 16:57 56.87830 55.91427 35826 ft 427 kts 270°
2026-04-27 16:57 56.87770 55.80634 35819 ft 426 kts 269°
2026-04-27 16:58 56.87605 55.69828 35810 ft 425 kts 268°
2026-04-27 16:58 56.87441 55.59078 35812 ft 425 kts 269°
2026-04-27 16:59 56.87283 55.48298 35801 ft 424 kts 269°
2026-04-27 16:59 56.87122 55.37519 35795 ft 424 kts 269°
2026-04-27 17:00 56.86863 55.21344 35784 ft 424 kts 269°
2026-04-27 17:01 56.86679 55.10570 35768 ft 424 kts 268°
2026-04-27 17:01 56.86486 54.99805 35761 ft 424 kts 261°
2026-04-27 17:02 56.86283 54.89057 35754 ft 424 kts 268°
2026-04-27 17:02 56.86070 54.78266 35751 ft 425 kts 268°
2026-04-27 17:03 56.85852 54.67526 35741 ft 426 kts 268°
2026-04-27 17:03 56.85631 54.56692 35728 ft 427 kts 268°
2026-04-27 17:04 56.85495 54.45841 35728 ft 427 kts 269°
2026-04-27 17:04 56.85361 54.35009 35714 ft 427 kts 268°
2026-04-27 17:05 56.85206 54.24175 35706 ft 427 kts 268°
2026-04-27 17:05 56.85037 54.13373 35694 ft 426 kts 268°
2026-04-27 17:06 56.84821 54.02542 35694 ft 426 kts 267°
2026-04-27 17:06 56.84556 53.91727 35685 ft 426 kts 266°
2026-04-27 17:07 56.84286 53.80925 35681 ft 425 kts 266°
2026-04-27 17:07 56.84014 53.70145 35678 ft 425 kts 266°
2026-04-27 17:08 56.83735 53.59359 35680 ft 425 kts 266°
2026-04-27 17:08 56.83446 53.48574 35673 ft 425 kts 266°
2026-04-27 17:09 56.83301 53.37785 35687 ft 425 kts 269°
2026-04-27 17:09 56.83345 53.26969 35687 ft 426 kts 269°
2026-04-27 17:10 56.83369 53.16137 35695 ft 426 kts 268°
2026-04-27 17:10 56.83360 53.05346 35702 ft 426 kts 268°
2026-04-27 17:11 56.83337 52.94497 35702 ft 426 kts 268°
2026-04-27 17:11 56.83246 52.78268 35701 ft 426 kts 267°
2026-04-27 17:12 56.83120 52.62039 35701 ft 427 kts 267°
2026-04-27 17:13 56.83029 52.51245 35701 ft 427 kts 267°
2026-04-27 17:13 56.82930 52.40555 35700 ft 427 kts 267°
2026-04-27 17:14 56.82821 52.29696 35698 ft 427 kts 266°
2026-04-27 17:14 56.82703 52.18822 35688 ft 427 kts 266°
2026-04-27 17:15 56.82765 52.07947 35692 ft 428 kts 269°
2026-04-27 17:15 56.82980 51.97066 35687 ft 429 kts 269°
2026-04-27 17:16 56.83160 51.86179 35681 ft 429 kts 269°
2026-04-27 17:16 56.83303 51.75314 35679 ft 429 kts 268°
2026-04-27 17:17 56.83434 51.64455 35675 ft 429 kts 268°
2026-04-27 17:17 56.83547 51.53543 35672 ft 429 kts 266°
2026-04-27 17:18 56.83013 51.37270 35664 ft 428 kts 263°
2026-04-27 17:18 56.82534 51.26407 35662 ft 429 kts 263°
2026-04-27 17:19 56.82046 51.15548 35656 ft 429 kts 263°
2026-04-27 17:19 56.81559 51.04748 35654 ft 430 kts 262°
2026-04-27 17:20 56.81062 50.93866 35651 ft 430 kts 262°
2026-04-27 17:20 56.80555 50.82978 35648 ft 431 kts 262°
2026-04-27 17:21 56.80039 50.72066 35647 ft 431 kts 262°